Tracking 28570 objects as of 5-Mar-2024
HD Live streaming from Space Station
objects crossing your sky now

QUANTUTONG 1

Track QUANTUTONG 1 now!
10-day predictions
QUANTUTONG 1 is classified as:


NORAD ID: 43158
Int'l Code: 2018-008D
Perigee: 457.3 km
Apogee: 470.0 km
Inclination: 97.3 °
Period: 93.7 minutes
Semi major axis: 6834 km
RCS: Unknown
Launch date: January 19, 2018
Source: People's Republic of China (PRC)
Launch site: Jiuquan Satellite Launch Center, China (JSC)

Uplink (MHz): 436.100/2415.000/5667.000
Downlink (MHz): 436.100/2415.000/5845.000
Beacon (MHz):
Mode: 9k6 GMSK/5Mbps OFDM
Call sign:
Status: Inactive

Your satellite tracking list
Your tracking list is empty




NASA's NSSDC Master Catalog

Two Line Element Set (TLE):
1 43158U 18008D   24065.08063991  .00030618  00000-0  85871-3 0  9991
2 43158  97.2700 114.2190 0009309 105.3415 254.8858 15.36486306338439
Source of the keplerian elements: AMSAT